Regional Weather Roundup
Issued by NWS Northern Indiana

Home | Current Version | Previous Version | Text Only | Print | Product List | Glossary On
Versions: 1 2 3 4 5 6 7 8 9 10 11 12 13 14 15 16 17 18 19 20 21 22 23 24 25 26 27 28 29 30 31 32 33 34 35 36 37 38 39 40 41 42 43 44 45 46 47 48 49 50
427
ASUS43 KIWX 280510
RWRIWX

KIWX WEATHER ROUNDUP
NATIONAL WEATHER SERVICE NORTHERN INDIANA
1200 AM EST TUE FEB 28 2017

NOTE: "FAIR" INDICATES FEW OR NO CLOUDS BELOW 12,000 FEET WITH NO
SIGNIFICANT WEATHER AND/OR OBSTRUCTIONS TO VISIBILITY.

* THESE STATIONS ARE NOT UNDER NWS QUALITY CONTROL. THEY ALSO MAY NOT
  REPORT WEATHER SUCH AS PRECIPITATION OR FOG.

INZ001>027-280600-
NORTHERN INDIANA

CITY           SKY/WX    TMP DP  RH WIND       PRES   REMARKS
GARY*          CLOUDY    48  38  69 SE12      30.06S
VALPARAISO     CLOUDY    46  40  79 S12       30.08S
MICHIGAN CITY* CLOUDY    45  37  76 S5        30.07F
LAPORTE*       CLOUDY    43  40  86 SE8       30.08F
KNOX*          CLOUDY    43  27  52 SE12      30.08F
SOUTH BEND     CLOUDY    43  38  82 SE10      30.10F
GOSHEN         CLOUDY    43  37  79 SE10      30.11F
MONTICELLO*    CLOUDY    45  40  85 S9        30.09R
LOGANSPORT*    CLOUDY    43  39  87 SE8       30.11S
ROCHESTER*     CLOUDY    45  41  87 SE8       30.10F
WARSAW*        CLOUDY    43  39  87 SE5       30.12F
ANGOLA*        PTCLDY    39  39 100 SE6       30.14F
FORT WAYNE     CLOUDY    40  38  93 SE9       30.14F
HUNTINGTON*    CLOUDY    41  40  96 SE5       30.13F
PERU/GRISSOM   CLOUDY    42  42 100 SE7       30.10F
MARION*        MOCLDY    42  40  92 SE9       30.13F

$$
INZ028>050-280600-
CENTRAL INDIANA

CITY           SKY/WX    TMP DP  RH WIND       PRES   REMARKS
LAFAYETTE      CLOUDY    45  42  89 SE5       30.09S
KOKOMO*        CLOUDY    42  40  92 SE9       30.12F
MUNCIE*        CLOUDY    45  40  82 SE8       30.13F
INDIANAPOLIS   CLOUDY    46  40  79 SE14      30.11F

$$
MIZ043>046-050>051-056>058-064>065-071>073-077>080-280600-
SOUTHWEST LOWER MICHIGAN

CITY           SKY/WX    TMP DP  RH WIND       PRES   REMARKS
BATTLE CREEK   MOCLDY    42  37  82 S12       30.13F
BENTON HARBOR  CLOUDY    45  37  73 SE9       30.08F
COLDWATER*     CLOUDY    40  38  91 S7        30.14F
HILLSDALE*     MOCLDY    37  36  93 SE7       30.16S
HOLLAND        CLOUDY    42  34  73 SE8       30.10F
GRAND RAPIDS   CLOUDY    38  32  79 SE7       30.11F
KALAMAZOO      PTCLDY    42  35  76 S7        30.13F
STURGIS*       CLOUDY    40  38  91 SE8       30.13F
THREE RIVERS*  MOCLDY    42  37  83 S7        30.13F

$$
OHZ001>008-015>018-024>025-280600-
NORTHWEST OHIO

CITY           SKY/WX    TMP DP  RH WIND       PRES   REMARKS
WAUSEON*       FAIR      37  36  93 S7        30.18F
DEFIANCE       PTCLDY    39  37  92 S7        30.18F
FINDLAY        CLOUDY    42  38  85 SE6       30.18F
TOLEDO EXPRESS CLOUDY    38  38 100 S5        30.19F
TOLEDO METCALF CLOUDY    38  37  97 S6        30.21F
LIMA           CLOUDY    41  40  96 S9        30.18F

$$
AND FOR LAKE MICHIGAN COASTAL AND OPEN LAKE BUOY OBSERVATIONS

STATION/POSITION TEMP    WIND        PRES    VSBY  WAVE
                 AIR SEA DIR/SP/G                  HT/PER
                 (F)     (DEG/KT/KT) (MB)    (MI)  (FT/S)
CALUMET HARBOR    46     150/  7/ 11 1016.8F
MICHIGAN CITY     45     130/ 12/ 14   N/A
BURNS HARBOR      47     170/ 11/ 17 1018.6S

$$
&&




USA.gov is the U.S. government's official web portal to all federal, state and local government web resources and services.